Port Angeles, WA
on Saturday, January 12, 2013

Saturday
Previous Day Next Day
Daily Summary
 ActualAverageRecord
Temperature
Mean Temperature °F °F  
Max Temperature 37°F 45°F 54°F (1983)
Min Temperature 28°F 33°F 16°F (1950)
Degree Days
Heating Degree Days 32    
Moisture
Dew Point 24°F   
Average Humidity 74    
Maximum Humidity 85    
Minimum Humidity 64    
Precipitation
Precipitation 0.00 in in in ()
Wind
Wind Speed 5 mph   
Max Wind Speed 7 mph   
Max Gust Speed mph   
Visibility 10 miles   
Events     
Averages and records for this station are not official NWS values.
Key: T is trace of precipitation, MM is missing value
Source: NWS Daily Summary
Seasonal Weather Averages
Time(PST)TemperatureDew PointHumidity Pressure Visibility Wind DirectionWind SpeedGust SpeedPrecipitationEvents Conditions
12:53 AM 28.9°F 23.0°F 78% 30.32 in 10.0 miles North - - N/A   Clear
1:53 AM 28.9°F 23.0°F 78% 30.33 in 10.0 miles North - - N/A   Clear
2:53 AM 28.0°F 21.9°F 78% 30.33 in 10.0 miles North - - N/A   Partly Cloudy
3:53 AM 28.4°F 21.2°F 74% 30.33 in 10.0 miles North - - N/A   Clear
4:53 AM 28.9°F 21.9°F 75% 30.34 in 10.0 miles North - - N/A   Mostly Cloudy
5:11 AM 30.0°F 21.9°F 72% 30.32 in 10.0 miles North - - N/A   Overcast
5:53 AM 28.9°F 21.9°F 75% 30.34 in 10.0 miles North - - N/A   Mostly Cloudy
6:08 AM 28.9°F 21.9°F 75% 30.32 in 10.0 miles North - - N/A   Scattered Clouds
6:53 AM 28.9°F 21.0°F 72% 30.35 in 10.0 miles North - - N/A   Partly Cloudy
7:53 AM 28.9°F 21.9°F 75% 30.37 in 10.0 miles North - - N/A   Mostly Cloudy
8:53 AM 30.0°F 23.0°F 75% 30.38 in 10.0 miles North - - N/A   Overcast
9:53 AM 33.1°F 25.0°F 72% 30.39 in 10.0 miles North - - N/A   Overcast
10:53 AM 37.0°F 27.0°F 67% 30.40 in 10.0 miles North - - N/A   Overcast
11:53 AM 37.0°F 26.1°F 65% 30.40 in 10.0 miles East 4.6 mph - N/A   Mostly Cloudy
12:48 PM 37.4°F 28.4°F 70% 30.38 in 10.0 miles ENE 5.8 mph - N/A   Mostly Cloudy
12:53 PM 37.0°F 28.0°F 70% 30.40 in 10.0 miles East 4.6 mph - N/A   Overcast
1:53 PM 36.0°F 27.0°F 70% 30.41 in 10.0 miles East 5.8 mph - N/A   Overcast
2:53 PM 37.9°F 27.0°F 65% 30.40 in 10.0 miles East 5.8 mph - N/A   Overcast
3:53 PM 36.0°F 25.0°F 64% 30.42 in 10.0 miles East 4.6 mph - N/A   Overcast
4:51 PM 33.8°F 24.8°F 70% 30.39 in 10.0 miles East 4.6 mph - N/A   Scattered Clouds
4:53 PM 33.1°F 24.1°F 70% 30.40 in 10.0 miles ESE 3.5 mph - N/A   Partly Cloudy
5:53 PM 30.9°F 26.1°F 82% 30.42 in 10.0 miles South 3.5 mph - N/A   Clear
6:53 PM 28.9°F 25.0°F 85% 30.42 in 10.0 miles South 3.5 mph - N/A   Clear
7:53 PM 28.9°F 25.0°F 85% 30.43 in 10.0 miles SW 6.9 mph - N/A   Clear
8:53 PM 28.9°F 24.1°F 82% 30.42 in 10.0 miles North - - N/A   Clear
9:53 PM 28.9°F 24.1°F 82% 30.43 in 10.0 miles North - - N/A   Clear
10:53 PM 28.0°F 23.0°F 81% 30.44 in 10.0 miles North - - N/A   Clear
11:53 PM 28.9°F 23.0°F 78% 30.45 in 10.0 miles North - - N/A   Clear
Moon Phase
Jan. 12 Jan. 18 Jan. 26 Feb. 03 Feb. 10
Sunrise:08:00 AM (PST) Moon Rise:08:15 AM (PST)1/12
Sunset:04:44 PM (PST) Moon Set:06:30 PM (PST)1/12

Copyright © 2014 The Weather Underground, Inc.